Flag for Afghanistan Weather past 2 weeks in Ghazni, Afghanistan

Now
90 °F

Hot.


Feels Like: 95 °F
Forecast: 40 / 86 °F
Wind: N/A

Location: Peshawar Airport

Current Time: Sep 16, 2014 at 6:51:20 PM

Latest Report: Sep 16, 2014 at 6:30 PM


Visibility: N/A

Pressure: 29.59 "Hg

Humidity: 52%

Dew point: 70 °F

Location of GhazniLocation

Historic Weather in Ghazni — Graph

°F

Ghazni temperature yesterday

Maximum temperature yesterday: 93 °F (at 1:30 PM)
Minimum temperature yesterday: 75 °F (at 2:30 AM)
Average temperature yesterday: 84 °F

Past Weeks' High & Low Weather Summary

 TemperatureHumidityPressure
High99 °F (Sep 8, 3:30 PM)83% (Sep 5, 3:30 AM)29.80 "Hg (Sep 5, 3:30 AM)
Low73 °F (Sep 5, 3:30 AM)39% (Sep 8, 3:30 PM)29.53 "Hg (Sep 4, 2:30 PM)
Average84 °F59%29.68 "Hg
* Reported Sep 1 5:30 PM — Sep 16 5:30 PM, Ghazni, Weather by CustomWeather, © 2014

Note: Actual official high and low records may vary slightly from our data, if they occured in-between our weather recording intervals... More about our weather records

Advertising

Ghazni weather history for previous 24 hours

 ConditionsComfort  
Time TempWeatherWind HumidityBarometerVisibility
5:30 PM
Sep 16
91 °FHot.N/A46%29.59 "HgN/A
4:30 PM93 °FExtremely hot.N/A44%29.59 "HgN/A
3:30 PM95 °FExtremely hot.N/A39%29.59 "HgN/A
2:30 PM95 °FSunny.12 mph41%29.62 "Hg2 mi
1:30 PM95 °FExtremely hot.N/A44%29.62 "HgN/A
12:30 PM93 °FExtremely hot.N/A49%29.65 "HgN/A
11:30 AM91 °FHot.N/A49%29.68 "HgN/A
10:30 AM90 °FHot.N/A55%29.71 "HgN/A
9:30 AM88 °FWarm.N/A55%29.71 "HgN/A
8:30 AMN/ASunny.No windN/A29.71 "Hg2 mi
7:30 AM81 °FSunny.No wind62%29.71 "Hg2 mi
6:30 AM77 °FSunny.No wind65%29.68 "Hg2 mi
5:30 AM77 °FSunny.No wind65%29.68 "Hg2 mi
4:30 AM77 °FClear.No wind65%29.65 "Hg2 mi
3:30 AM77 °FClear.No wind61%29.65 "Hg2 mi
2:30 AM77 °FClear.No wind61%29.65 "Hg2 mi
1:30 AM79 °FClear.No wind54%29.65 "Hg2 mi
12:30 AM79 °FWarm.N/A54%29.68 "HgN/A
11:30 PM
Sep 15
81 °FWarm.N/A54%29.68 "HgN/A
10:30 PM82 °FWarm.N/A51%29.68 "HgN/A
9:30 PM82 °FWarm.N/A51%29.68 "HgN/A
8:30 PM84 °FWarm.N/A48%29.68 "HgN/A
7:30 PM86 °FWarm.N/A49%29.68 "HgN/A
6:30 PM88 °FWarm.N/A49%29.65 "HgN/A
Weather by CustomWeather, © 2014

See weather overviewHow to use our weather pages